Shannon, Ireland

11:36 PM IST on March 29, 2017 (GMT +0100)
Shannon

Weather History for EINN - December, 2012

Change the Weather History Date:

Sunday, December 9, 2012

  Actual Average Record
Temperature  
Mean Temperature 45 °F -  
Max Temperature 48 °F 48 °F 56 °F (2016)
Min Temperature 42 °F 38 °F 24 °F (2010)
Degree Days  
Heating Degree Days 20    
Moisture  
Dew Point 44 °F    
Average Humidity 94    
Maximum Humidity 100    
Minimum Humidity 87    
Precipitation  
Precipitation 0.04 in 0.13 in - ()
Sea Level Pressure  
Sea Level Pressure 30.25 in    
Wind  
Wind Speed 7 mph ()    
Max Wind Speed 13 mph    
Max Gust Speed -    
Visibility 5.8 miles    
Events Fog , Rain    
Averages and records for this station are not official NWS values.
T = Trace of Precipitation, MM = Missing Value Source: Averaged Metar Reports

Daily Weather History Graph

Daily Weather History Graph

Search for Another Location

Airport or City:

Trip Planner

Search our weather history database for the weather conditions in past years. The results will help you decide how hot, cold, wet, or windy it might be!

Date:

Astronomy

Dec. 09, 2012 Rise Set
Actual Time 8:35 AM GMT 4:20 PM GMT
Civil Twilight 7:54 AM GMT 5:02 PM GMT
Nautical Twilight 7:09 AM GMT 5:46 PM GMT
Astronomical Twilight 6:28 AM GMT 6:28 PM GMT
Moon 3:24 AM GMT (12/9) 1:43 PM GMT (12/9)
Length of Visible Light 9h 08m
Length of Day
7h 45m
Waning Crescent, 20% of the Moon is Illuminated
Dec 9
Waning Crescent
Dec 13
New
Dec 20
First Quarter
Dec 28
Full
Jan 5
Last Quarter

Hourly Weather History & Observations

Time (GMT) Temp. Windchill Dew Point Humidity Pressure Visibility Wind Dir Wind Speed Gust Speed Precip Events Conditions
12:00 AM 44.6 °F 40.2 °F 42.8 °F 93% 30.33 in 6.2 mi West 8.1 mph - N/A   Mostly Cloudy
12:30 AM 46.4 °F 41.1 °F 42.8 °F 87% 30.33 in 6.2 mi West 11.5 mph - N/A   Mostly Cloudy
1:00 AM 44.6 °F 39.2 °F 42.8 °F 93% 30.33 in 6.2 mi West 10.4 mph - N/A   Mostly Cloudy
1:30 AM 44.6 °F 38.4 °F 41.0 °F 87% 30.30 in 5.0 mi West 12.7 mph - N/A   Mostly Cloudy
2:00 AM 44.6 °F 38.8 °F 42.8 °F 93% 30.30 in 4.3 mi WSW 11.5 mph - N/A   Light Drizzle
2:30 AM 44.6 °F 40.2 °F 44.6 °F 100% 30.30 in 2.5 mi WSW 8.1 mph - N/A   Light Drizzle
3:00 AM 44.6 °F 39.7 °F 42.8 °F 93% 30.30 in 6.2 mi West 9.2 mph - N/A   Mostly Cloudy
3:30 AM 44.6 °F 40.7 °F 42.8 °F 93% 30.30 in 6.2 mi WSW 6.9 mph - N/A   Mostly Cloudy
4:00 AM 44.6 °F 40.2 °F 42.8 °F 93% 30.30 in 6.2 mi West 8.1 mph - N/A   Mostly Cloudy
4:30 AM 42.8 °F 39.3 °F 41.0 °F 93% 30.27 in 6.2 mi West 5.8 mph - N/A   Mostly Cloudy
5:00 AM 44.6 °F 40.2 °F 42.8 °F 93% 30.27 in 6.2 mi West 8.1 mph - N/A   Mostly Cloudy
5:30 AM 44.6 °F 39.7 °F 42.8 °F 93% 30.27 in 5.0 mi WSW 9.2 mph - N/A   Light Drizzle
6:00 AM 45 °F - 43 °F 92% 30.29 in 12 mi West 6.7 mph - - Rain Light Drizzle
6:00 AM 44.6 °F 40.7 °F 42.8 °F 93% 30.27 in 6.2 mi West 6.9 mph - N/A   Mostly Cloudy
6:30 AM 44.6 °F 39.7 °F 42.8 °F 93% 30.27 in 6.2 mi WSW 9.2 mph - N/A   Mostly Cloudy
7:00 AM 44.6 °F 39.2 °F 42.8 °F 93% 30.27 in 6.2 mi West 10.4 mph - N/A   Mostly Cloudy
7:30 AM 44.6 °F 42.2 °F 42.8 °F 93% 30.27 in 6.2 mi WNW 4.6 mph - N/A   Mostly Cloudy
8:00 AM 44.6 °F 42.2 °F 42.8 °F 93% 30.24 in 6.2 mi WSW 4.6 mph - N/A   Mostly Cloudy
8:30 AM 44.6 °F 41.4 °F 42.8 °F 93% 30.24 in 6.2 mi WSW 5.8 mph - N/A   Mostly Cloudy
9:00 AM 44.6 °F 41.4 °F 42.8 °F 93% 30.24 in 6.2 mi West 5.8 mph - N/A   Mostly Cloudy
9:30 AM 44.6 °F 40.7 °F 42.8 °F 93% 30.24 in 6.2 mi West 6.9 mph - N/A   Mostly Cloudy
10:00 AM 44.6 °F 39.2 °F 42.8 °F 93% 30.24 in 6.2 mi WSW 10.4 mph - N/A   Light Drizzle
10:30 AM 46.4 °F 41.5 °F 44.6 °F 93% 30.24 in 6.2 mi West 10.4 mph - N/A   Mostly Cloudy
11:00 AM 46.4 °F 42.4 °F 44.6 °F 93% 30.24 in 6.2 mi West 8.1 mph - N/A   Mostly Cloudy
11:30 AM 46.4 °F 41.5 °F 44.6 °F 93% 30.24 in 6.2 mi WSW 10.4 mph - N/A   Mostly Cloudy
12:00 PM 47 °F - 45 °F 91% 30.26 in 16 mi West 8.9 mph - -   Partly Cloudy
12:00 PM 46.4 °F 42.4 °F 44.6 °F 93% 30.24 in 6.2 mi West 8.1 mph - N/A   Mostly Cloudy
12:30 PM 48.2 °F - 44.6 °F 87% 30.24 in 6.2 mi West 10.4 mph - N/A   Mostly Cloudy
1:00 PM 48.2 °F - 44.6 °F 87% 30.21 in 6.2 mi West 8.1 mph - N/A   Mostly Cloudy
1:30 PM 48.2 °F - 44.6 °F 87% 30.21 in 6.2 mi West 9.2 mph - N/A   Mostly Cloudy
2:00 PM 48.2 °F - 44.6 °F 87% 30.21 in 6.2 mi West 9.2 mph - N/A   Mostly Cloudy
2:30 PM 48.2 °F - 46.4 °F 93% 30.21 in 6.2 mi West 9.2 mph - N/A   Mostly Cloudy
3:00 PM 48.2 °F - 46.4 °F 93% 30.21 in 6.2 mi West 8.1 mph - N/A   Mostly Cloudy
3:30 PM 48.2 °F - 44.6 °F 87% 30.21 in 6.2 mi West 9.2 mph - N/A   Light Drizzle
4:00 PM 48.2 °F - 46.4 °F 93% 30.21 in 3.7 mi WNW 6.9 mph - N/A   Light Drizzle
4:30 PM 46.4 °F 43.5 °F 46.4 °F 100% 30.21 in 1.1 mi NW 5.8 mph - N/A   Drizzle
5:00 PM 46.4 °F 45.2 °F 46.4 °F 100% 30.21 in 1.2 mi NNW 3.5 mph - N/A   Drizzle
5:30 PM 46.4 °F 43.5 °F 46.4 °F 100% 30.21 in 1.2 mi NNW 5.8 mph - N/A   Light Drizzle
6:00 PM 46 °F - 45 °F 96% 30.24 in 5 mi WNW 4.5 mph - - Rain Light Drizzle
6:00 PM 46.4 °F 44.3 °F 44.6 °F 93% 30.21 in 5.0 mi WNW 4.6 mph - N/A   Light Drizzle
6:30 PM 46.4 °F 43.5 °F 44.6 °F 93% 30.21 in 3.1 mi NNW 5.8 mph - N/A   Light Drizzle
7:00 PM 44.6 °F 41.4 °F 44.6 °F 100% 30.24 in 6.2 mi NNE 5.8 mph - N/A   Mostly Cloudy
7:30 PM 44.6 °F 42.2 °F 44.6 °F 100% 30.24 in 6.2 mi North 4.6 mph - N/A   Light Drizzle
8:00 PM 44.6 °F 43.1 °F 44.6 °F 100% 30.24 in 6.2 mi NNW 3.5 mph - N/A   Mostly Cloudy
8:30 PM 44.6 °F 42.2 °F 44.6 °F 100% 30.24 in 6.2 mi NNW 4.6 mph - N/A   Mostly Cloudy
9:00 PM 44.6 °F - 42.8 °F 93% 30.24 in 6.2 mi North 2.3 mph - N/A   Mostly Cloudy
9:30 PM 44.6 °F - 42.8 °F 93% 30.24 in 6.2 mi NW 1.2 mph - N/A   Mostly Cloudy
10:00 PM 42.8 °F - 42.8 °F 100% 30.24 in 6.2 mi WNW 1.2 mph - N/A   Mostly Cloudy
10:30 PM 42.8 °F - 42.8 °F 100% 30.24 in 5.0 mi WNW 1.2 mph - N/A Fog Fog
11:00 PM 42.8 °F - 42.8 °F 100% 30.24 in 4.3 mi NNW 1.2 mph - N/A Fog Fog
11:30 PM 42.8 °F - 42.8 °F 100% 30.24 in 4.3 mi NNW 1.2 mph - N/A Fog Fog